(2007 RU17) |
Classification: Apollo [NEO, PHA] SPK-ID: 3384406 |
[ hide orbit diagram ]
For accurate long-term ephemerides, please instead use our Horizons system.This orbit viewer was implemented using two-body methods, and hence should not be used for determining accurate long-term trajectories (over several years or decades) or planetary encounter circumstances.
Orbital Elements at Epoch 2459200.5 (2020-Dec-17.0) TDB
Reference: JPL 65 (heliocentric ecliptic J2000)
Element | Value | Uncertainty (1-sigma) | Units |
e | .8286103165922701 | 1.3901e-07 | |
a | 2.039305326403468 | 1.0506e-07 | au |
q | .3495158942639875 | 2.7427e-07 | au |
i | 9.105154765746459 | 2.1202e-05 | deg |
node | 17.14326921492999 | 2.2484e-05 | deg |
peri | 130.1268002616632 | 3.3196e-05 | deg |
M | 157.2399665461513 | 1.7433e-05 | deg |
tp | 2458735.896743868383 (2019-Sep-09.39674387) | 1.6435e-05 | TDB |
period | 1063.706485579102 2.91 | 8.2198e-05 2.25e-07 | d yr |
n | .3384392263096988 | 2.6153e-08 | deg/d |
Q | 3.729094758542947 | 1.9211e-07 | au |
|
| | Orbit Determination Parameters
Additional Information
|
[ show covariance matrix ]
[ show close-approach data ]
|